Time,TemperatureF,DewpointF,PressureIn,WindDirection,WindDirectionDegrees,WindSpeedMPH,WindSpeedGustMPH,Humidity,HourlyPrecipIn,Conditions,Clouds,dailyrainin,SoftwareType,DateUTC
2013-03-11 00:03:00,61.0,33.0,-100.00,SE,145,14.0,22.0,35,0.00,,,-99.99,,2013-03-11 04:03:00,
2013-03-11 00:12:00,61.0,34.0,-100.00,SE,145,16.0,22.0,36,0.00,,,-99.99,,2013-03-11 04:12:00,
2013-03-11 00:22:00,61.0,34.0,-100.00,SSE,155,14.0,21.0,36,0.00,,,-99.99,,2013-03-11 04:22:00,
2013-03-11 00:33:00,61.0,35.0,-100.00,SSE,155,14.0,21.0,37,0.00,,,-99.99,,2013-03-11 04:33:00,
2013-03-11 00:42:00,60.0,34.0,-100.00,SSE,155,14.0,20.0,37,0.00,,,-99.99,,2013-03-11 04:42:00,
2013-03-11 00:52:00,61.0,34.0,-100.00,SSE,150,13.0,22.0,37,0.00,,,-99.99,,2013-03-11 04:52:00,
2013-03-11 01:03:00,60.0,34.0,-100.00,SSE,165,14.0,20.0,37,0.00,,,-99.99,,2013-03-11 05:03:00,
2013-03-11 01:12:00,60.0,34.0,-100.00,SSE,150,14.0,22.0,37,0.00,,,-99.99,,2013-03-11 05:12:00,
2013-03-11 01:22:00,60.0,34.0,-100.00,SSE,155,14.0,22.0,37,0.00,,,-99.99,,2013-03-11 05:22:00,
2013-03-11 01:32:00,59.0,34.0,-100.00,SSE,160,12.0,22.0,38,0.00,,,-99.99,,2013-03-11 05:32:00,
2013-03-11 01:42:00,60.0,34.0,-100.00,SSE,160,15.0,21.0,37,0.00,,,-99.99,,2013-03-11 05:42:00,
2013-03-11 01:52:00,59.0,34.0,-100.00,SSE,155,15.0,19.0,38,0.00,,,-99.99,,2013-03-11 05:52:00,
2013-03-11 02:02:00,59.0,34.0,-100.00,SSE,160,13.0,20.0,38,0.00,,,-99.99,,2013-03-11 06:02:00,
2013-03-11 02:12:00,59.0,34.0,-100.00,SSE,155,14.0,17.0,39,0.00,,,-99.99,,2013-03-11 06:12:00,
2013-03-11 02:22:00,59.0,34.0,-100.00,SSE,150,12.0,17.0,39,0.00,,,-99.99,,2013-03-11 06:22:00,
2013-03-11 02:32:00,59.0,34.0,-100.00,SSE,155,13.0,22.0,38,0.00,,,-99.99,,2013-03-11 06:32:00,
2013-03-11 02:42:00,59.0,34.0,-100.00,SSE,150,13.0,19.0,38,0.00,,,-99.99,,2013-03-11 06:42:00,
2013-03-11 02:52:00,59.0,34.0,-100.00,SSE,155,14.0,20.0,39,0.00,,,-99.99,,2013-03-11 06:52:00,
2013-03-11 03:03:00,58.0,34.0,-100.00,SSE,160,12.0,19.0,39,0.00,,,-99.99,,2013-03-11 07:03:00,
2013-03-11 03:12:00,58.0,34.0,-100.00,SSE,150,12.0,19.0,39,0.00,,,-99.99,,2013-03-11 07:12:00,
2013-03-11 03:22:00,58.0,33.0,-100.00,SSE,160,13.0,22.0,39,0.00,,,-99.99,,2013-03-11 07:22:00,
2013-03-11 03:32:00,58.0,34.0,-100.00,SSE,165,15.0,23.0,39,0.00,,,-99.99,,2013-03-11 07:32:00,
2013-03-11 03:42:00,58.0,33.0,-100.00,SSE,155,14.0,21.0,39,0.00,,,-99.99,,2013-03-11 07:42:00,
2013-03-11 03:52:00,57.0,35.0,-100.00,SSE,150,11.0,20.0,42,0.00,,,-99.99,,2013-03-11 07:52:00,
2013-03-11 04:02:00,57.0,35.0,-100.00,SSE,165,12.0,16.0,42,0.00,,,-99.99,,2013-03-11 08:02:00,
2013-03-11 04:12:00,57.0,34.0,-100.00,SE,145,10.0,14.0,42,0.00,,,-99.99,,2013-03-11 08:12:00,
2013-03-11 04:22:00,57.0,34.0,-100.00,SSE,155,11.0,16.0,41,0.00,,,-99.99,,2013-03-11 08:22:00,
2013-03-11 04:32:00,57.0,34.0,-100.00,South,170,11.0,16.0,41,0.00,,,-99.99,,2013-03-11 08:32:00,
2013-03-11 04:42:00,56.0,34.0,-100.00,SSE,160,12.0,18.0,42,0.00,,,-99.99,,2013-03-11 08:42:00,
2013-03-11 04:52:00,57.0,34.0,-100.00,South,175,13.0,17.0,42,0.00,,,-99.99,,2013-03-11 08:52:00,
2013-03-11 05:02:00,56.0,34.0,-100.00,South,170,15.0,19.0,42,0.00,,,-99.99,,2013-03-11 09:02:00,
2013-03-11 05:12:00,57.0,33.0,-100.00,SSE,165,14.0,19.0,40,0.00,,,-99.99,,2013-03-11 09:12:00,
2013-03-11 05:23:00,56.0,34.0,-100.00,South,175,13.0,19.0,42,0.00,,,-99.99,,2013-03-11 09:23:00,
2013-03-11 05:32:00,56.0,34.0,-100.00,South,170,12.0,19.0,42,0.55,,,-99.99,,2013-03-11 09:32:00,
2013-03-11 05:42:00,55.0,36.0,-100.00,South,185,9.0,17.0,49,0.00,,,-99.99,,2013-03-11 09:42:00,
2013-03-11 05:52:00,55.0,36.0,-100.00,South,180,9.0,13.0,48,0.00,,,-99.99,,2013-03-11 09:52:00,
2013-03-11 06:02:00,55.0,36.0,-100.00,SSW,195,9.0,14.0,49,2.83,,,-99.99,,2013-03-11 10:02:00,
2013-03-11 06:12:00,54.0,37.0,-100.00,South,190,6.0,12.0,52,0.00,,,-99.99,,2013-03-11 10:12:00,
2013-03-11 06:22:00,54.0,36.0,-100.00,SSW,195,4.0,6.0,51,1.69,,,-99.99,,2013-03-11 10:22:00,
2013-03-11 06:32:00,53.0,38.0,-100.00,South,180,4.0,6.0,56,0.55,,,-99.99,,2013-03-11 10:32:00,
2013-03-11 06:42:00,53.0,37.0,-100.00,SSE,150,2.0,6.0,56,0.00,,,-99.99,,2013-03-11 10:42:00,
2013-03-11 06:52:00,53.0,37.0,-100.00,South,180,2.0,4.0,54,0.00,,,-99.99,,2013-03-11 10:52:00,
2013-03-11 07:02:00,53.0,37.0,-100.00,SSE,165,2.0,3.0,53,0.00,,,-99.99,,2013-03-11 11:02:00,
2013-03-11 07:12:00,53.0,36.0,-100.00,SE,145,3.0,4.0,52,0.00,,,-99.99,,2013-03-11 11:12:00,
2013-03-11 07:22:00,53.0,37.0,-100.00,SE,140,6.0,7.0,54,0.00,,,-99.99,,2013-03-11 11:22:00,
2013-03-11 07:33:00,54.0,36.0,-100.00,SE,140,4.0,9.0,50,0.00,,,-99.99,,2013-03-11 11:33:00,
2013-03-11 07:42:00,53.0,35.0,-100.00,SE,125,6.0,7.0,49,0.00,,,-99.99,,2013-03-11 11:42:00,
2013-03-11 07:52:00,54.0,35.0,-100.00,SE,125,6.0,9.0,48,0.00,,,-99.99,,2013-03-11 11:52:00,
2013-03-11 08:02:00,53.0,34.0,-100.00,ESE,120,5.0,7.0,48,0.00,,,-99.99,,2013-03-11 12:02:00,
2013-03-11 08:12:00,53.0,35.0,-100.00,SE,135,6.0,9.0,50,0.00,,,-99.99,,2013-03-11 12:12:00,
2013-03-11 08:22:00,53.0,34.0,-100.00,SE,135,7.0,10.0,48,0.00,,,-99.99,,2013-03-11 12:22:00,
2013-03-11 08:32:00,53.0,34.0,-100.00,SE,145,6.0,10.0,48,0.00,,,-99.99,,2013-03-11 12:32:00,
2013-03-11 08:43:00,53.0,34.0,-100.00,ESE,120,7.0,12.0,47,0.00,,,-99.99,,2013-03-11 12:43:00,
2013-03-11 08:52:00,53.0,34.0,-100.00,SE,145,7.0,11.0,48,0.00,,,-99.99,,2013-03-11 12:52:00,
2013-03-11 09:02:00,53.0,34.0,-100.00,SE,140,9.0,12.0,47,0.00,,,-99.99,,2013-03-11 13:02:00,
2013-03-11 09:12:00,53.0,33.0,-100.00,SE,140,9.0,14.0,46,0.00,,,-99.99,,2013-03-11 13:12:00,
2013-03-11 09:22:00,53.0,34.0,-100.00,SSE,150,11.0,16.0,47,0.00,,,-99.99,,2013-03-11 13:22:00,
2013-03-11 09:32:00,54.0,33.0,-100.00,SSE,150,12.0,17.0,46,0.00,,,-99.99,,2013-03-11 13:32:00,
2013-03-11 09:42:00,54.0,33.0,-100.00,SSE,150,12.0,17.0,46,0.00,,,-99.99,,2013-03-11 13:42:00,
2013-03-11 09:52:00,53.0,33.0,-100.00,SSE,150,12.0,17.0,46,0.00,,,-99.99,,2013-03-11 13:52:00,
2013-03-11 10:02:00,53.0,34.0,-100.00,SSE,155,12.0,19.0,46,0.00,,,-99.99,,2013-03-11 14:02:00,
2013-03-11 10:12:00,54.0,33.0,-100.00,SSE,160,15.0,19.0,45,0.00,,,-99.99,,2013-03-11 14:12:00,
2013-03-11 10:22:00,54.0,34.0,-100.00,SSE,160,13.0,16.0,46,0.00,,,-99.99,,2013-03-11 14:22:00,
2013-03-11 10:33:00,54.0,33.0,-100.00,SSE,160,14.0,19.0,45,0.00,,,-99.99,,2013-03-11 14:33:00,
2013-03-11 10:42:00,54.0,34.0,-100.00,SSE,160,12.0,16.0,46,0.00,,,-99.99,,2013-03-11 14:42:00,
2013-03-11 10:52:00,54.0,34.0,-100.00,SSE,160,11.0,17.0,47,0.00,,,-99.99,,2013-03-11 14:52:00,
2013-03-11 11:03:00,54.0,35.0,-100.00,SSE,165,9.0,15.0,49,0.00,,,-99.99,,2013-03-11 15:03:00,
2013-03-11 11:12:00,54.0,35.0,-100.00,SSE,165,9.0,16.0,47,0.00,,,-99.99,,2013-03-11 15:12:00,
2013-03-11 11:22:00,55.0,35.0,-100.00,SSE,155,10.0,15.0,46,0.00,,,-99.99,,2013-03-11 15:22:00,
2013-03-11 11:32:00,55.0,36.0,-100.00,SSE,165,9.0,16.0,49,0.00,,,-99.99,,2013-03-11 15:32:00,
2013-03-11 11:42:00,55.0,36.0,-100.00,SSE,165,10.0,16.0,48,0.00,,,-99.99,,2013-03-11 15:42:00,
2013-03-11 11:52:00,54.0,37.0,-100.00,SSE,165,12.0,16.0,52,0.00,,,-99.99,,2013-03-11 15:52:00,
2013-03-11 12:02:00,54.0,38.0,-100.00,SSE,165,15.0,19.0,56,0.55,,,-99.99,,2013-03-11 16:02:00,
2013-03-11 12:12:00,53.0,40.0,-100.00,SSE,155,12.0,24.0,62,0.00,,,-99.99,,2013-03-11 16:12:00,
2013-03-11 12:22:00,52.0,40.0,-100.00,SSE,165,17.0,22.0,65,1.69,,,-99.99,,2013-03-11 16:22:00,
2013-03-11 12:32:00,51.0,43.0,-100.00,South,170,14.0,22.0,75,0.00,,,-99.99,,2013-03-11 16:32:00,
2013-03-11 12:43:00,50.0,44.0,-100.00,SSE,165,10.0,19.0,78,0.55,,,-99.99,,2013-03-11 16:43:00,
2013-03-11 12:52:00,50.0,43.0,-100.00,SSE,155,12.0,18.0,78,0.55,,,-99.99,,2013-03-11 16:52:00,
2013-03-11 13:02:00,50.0,43.0,-100.00,SE,145,11.0,16.0,77,0.55,,,-99.99,,2013-03-11 17:02:00,
2013-03-11 13:15:00,50.0,43.0,-100.00,SSE,155,11.0,16.0,77,0.55,,,-99.99,,2013-03-11 17:15:00,
2013-03-11 13:26:00,50.0,43.0,-100.00,SE,135,10.0,16.0,77,0.55,,,-99.99,,2013-03-11 17:26:00,
2013-03-11 13:37:00,50.0,43.0,-100.00,SE,145,10.0,14.0,77,0.00,,,-99.99,,2013-03-11 17:37:00,
2013-03-11 13:42:00,51.0,43.0,-100.00,SE,140,13.0,16.0,75,0.00,,,-99.99,,2013-03-11 17:42:00,
2013-03-11 13:52:00,51.0,43.0,-100.00,SE,145,17.0,22.0,74,0.00,,,-99.99,,2013-03-11 17:52:00,
2013-03-11 14:02:00,51.0,44.0,-100.00,SSE,150,16.0,22.0,76,0.00,,,-99.99,,2013-03-11 18:02:00,
2013-03-11 14:12:00,51.0,44.0,-100.00,SSE,160,16.0,24.0,77,0.00,,,-99.99,,2013-03-11 18:12:00,
2013-03-11 14:23:00,52.0,45.0,-100.00,SSE,150,18.0,27.0,76,0.00,,,-99.99,,2013-03-11 18:23:00,
2013-03-11 14:33:00,53.0,45.0,-100.00,SSE,150,21.0,27.0,74,0.00,,,-99.99,,2013-03-11 18:33:00,
2013-03-11 14:42:00,53.0,45.0,-100.00,SSE,155,16.0,25.0,74,0.00,,,-99.99,,2013-03-11 18:42:00,
2013-03-11 14:52:00,53.0,45.0,-100.00,SSE,150,15.0,25.0,75,0.00,,,-99.99,,2013-03-11 18:52:00,
2013-03-11 15:02:00,52.0,46.0,-100.00,SE,145,14.0,22.0,77,0.00,,,-99.99,,2013-03-11 19:02:00,
2013-03-11 15:12:00,53.0,46.0,-100.00,SSE,150,17.0,25.0,77,0.00,,,-99.99,,2013-03-11 19:12:00,
2013-03-11 15:22:00,53.0,46.0,-100.00,SE,145,17.0,25.0,77,0.55,,,-99.99,,2013-03-11 19:22:00,
2013-03-11 15:33:00,53.0,46.0,-100.00,SSE,155,15.0,21.0,79,0.00,,,-99.99,,2013-03-11 19:33:00,
2013-03-11 15:42:00,53.0,47.0,-100.00,SSE,155,19.0,25.0,78,0.00,,,-99.99,,2013-03-11 19:42:00,
2013-03-11 15:52:00,53.0,47.0,-100.00,SSE,155,17.0,22.0,78,0.00,,,-99.99,,2013-03-11 19:52:00,
2013-03-11 16:02:00,54.0,47.0,-100.00,SSE,150,16.0,25.0,78,0.00,,,-99.99,,2013-03-11 20:02:00,
2013-03-11 16:12:00,54.0,47.0,-100.00,SSE,155,18.0,25.0,76,0.00,,,-99.99,,2013-03-11 20:12:00,
2013-03-11 16:22:00,54.0,46.0,-100.00,SE,145,14.0,27.0,74,0.00,,,-99.99,,2013-03-11 20:22:00,
2013-03-11 16:32:00,55.0,46.0,-100.00,SSE,160,19.0,25.0,72,0.00,,,-99.99,,2013-03-11 20:32:00,
2013-03-11 16:43:00,55.0,46.0,-100.00,SSE,160,17.0,31.0,73,0.00,,,-99.99,,2013-03-11 20:43:00,
2013-03-11 16:52:00,54.0,47.0,-100.00,SSE,150,16.0,27.0,76,0.00,,,-99.99,,2013-03-11 20:52:00,
2013-03-11 17:03:00,54.0,47.0,-100.00,South,170,13.0,25.0,79,0.00,,,-99.99,,2013-03-11 21:03:00,
2013-03-11 17:12:00,53.0,47.0,-100.00,SSE,150,17.0,23.0,79,0.00,,,-99.99,,2013-03-11 21:12:00,
2013-03-11 17:22:00,54.0,47.0,-100.00,SSE,155,17.0,22.0,79,0.55,,,-99.99,,2013-03-11 21:22:00,
2013-03-11 17:32:00,54.0,48.0,-100.00,SSE,155,18.0,25.0,81,0.00,,,-99.99,,2013-03-11 21:32:00,
2013-03-11 17:43:00,53.0,48.0,-100.00,SSE,155,17.0,28.0,82,0.55,,,-99.99,,2013-03-11 21:43:00,
2013-03-11 17:52:00,53.0,48.0,-100.00,SSE,160,18.0,28.0,84,0.55,,,-99.99,,2013-03-11 21:52:00,
2013-03-11 18:03:00,53.0,48.0,-100.00,SSE,155,19.0,27.0,85,0.55,,,-99.99,,2013-03-11 22:03:00,
2013-03-11 18:12:00,52.0,48.0,-100.00,South,175,17.0,25.0,87,1.10,,,-99.99,,2013-03-11 22:12:00,
2013-03-11 18:22:00,52.0,49.0,-100.00,SSE,165,17.0,27.0,89,0.55,,,-99.99,,2013-03-11 22:22:00,
2013-03-11 18:32:00,52.0,49.0,-100.00,SSE,165,15.0,25.0,90,0.00,,,-99.99,,2013-03-11 22:32:00,
2013-03-11 18:43:00,51.0,49.0,-100.00,South,175,17.0,24.0,92,1.10,,,-99.99,,2013-03-11 22:43:00,
2013-03-11 18:52:00,51.0,50.0,-100.00,SW,215,12.0,19.0,94,4.53,,,-99.99,,2013-03-11 22:52:00,
2013-03-11 19:03:00,48.0,46.0,-100.00,WSW,245,10.0,21.0,94,10.75,,,-99.99,,2013-03-11 23:03:00,
2013-03-11 19:12:00,47.0,46.0,-100.00,WSW,250,7.0,16.0,96,1.69,,,-99.99,,2013-03-11 23:12:00,
2013-03-11 19:22:00,47.0,46.0,-100.00,SW,225,13.0,21.0,96,0.55,,,-99.99,,2013-03-11 23:22:00,
2013-03-11 19:32:00,47.0,46.0,-100.00,WSW,245,12.0,17.0,96,1.10,,,-99.99,,2013-03-11 23:32:00,
2013-03-11 19:43:00,46.0,46.0,-100.00,WSW,245,10.0,16.0,97,1.10,,,-99.99,,2013-03-11 23:43:00,
2013-03-11 19:52:00,46.0,45.0,-100.00,West,260,9.0,16.0,96,1.69,,,-99.99,,2013-03-11 23:52:00,
2013-03-11 20:02:00,46.0,44.0,-100.00,WSW,250,12.0,19.0,96,1.10,,,-99.99,,2013-03-12 00:02:00,
2013-03-11 20:12:00,46.0,44.0,-100.00,SW,230,14.0,24.0,93,1.69,,,-99.99,,2013-03-12 00:12:00,
2013-03-11 20:23:00,45.0,43.0,-100.00,WSW,245,16.0,24.0,92,1.10,,,-99.99,,2013-03-12 00:23:00,
2013-03-11 20:33:00,45.0,43.0,-100.00,WSW,245,12.0,21.0,91,0.55,,,-99.99,,2013-03-12 00:33:00,
2013-03-11 20:42:00,45.0,43.0,-100.00,WSW,240,13.0,20.0,93,0.00,,,-99.99,,2013-03-12 00:42:00,
2013-03-11 20:53:00,45.0,43.0,-100.00,SW,230,12.0,19.0,92,0.55,,,-99.99,,2013-03-12 00:53:00,
2013-03-11 21:02:00,45.0,42.0,-100.00,SW,230,9.0,20.0,90,0.00,,,-99.99,,2013-03-12 01:02:00,
2013-03-11 21:12:00,45.0,42.0,-100.00,SSW,210,11.0,14.0,90,0.00,,,-99.99,,2013-03-12 01:12:00,
2013-03-11 21:22:00,45.0,42.0,-100.00,SW,230,8.0,15.0,90,0.00,,,-99.99,,2013-03-12 01:22:00,
2013-03-11 21:33:00,45.0,42.0,-100.00,SW,230,9.0,17.0,89,0.00,,,-99.99,,2013-03-12 01:33:00,
2013-03-11 21:42:00,45.0,42.0,-100.00,WSW,255,10.0,16.0,88,0.00,,,-99.99,,2013-03-12 01:42:00,
2013-03-11 21:52:00,45.0,42.0,-100.00,WSW,240,6.0,13.0,89,0.00,,,-99.99,,2013-03-12 01:52:00,
2013-03-11 22:02:00,45.0,41.0,-100.00,West,275,7.0,13.0,86,0.00,,,-99.99,,2013-03-12 02:02:00,
2013-03-11 22:12:00,44.0,39.0,-100.00,West,270,6.0,12.0,82,0.00,,,-99.99,,2013-03-12 02:12:00,
2013-03-11 22:22:00,44.0,38.0,-100.00,West,280,7.0,12.0,81,0.00,,,-99.99,,2013-03-12 02:22:00,
2013-03-11 22:32:00,43.0,38.0,-100.00,West,265,7.0,13.0,81,0.00,,,-99.99,,2013-03-12 02:32:00,
2013-03-11 22:42:00,42.0,37.0,-100.00,WSW,245,7.0,13.0,80,0.00,,,-99.99,,2013-03-12 02:42:00,
2013-03-11 22:52:00,42.0,36.0,-100.00,WSW,245,11.0,19.0,78,0.00,,,-99.99,,2013-03-12 02:52:00,
2013-03-11 23:02:00,42.0,35.0,-100.00,WSW,255,10.0,19.0,77,0.00,,,-99.99,,2013-03-12 03:02:00,
2013-03-11 23:12:00,42.0,35.0,-100.00,West,260,8.0,17.0,77,0.00,,,-99.99,,2013-03-12 03:12:00,
2013-03-11 23:22:00,41.0,35.0,-100.00,SW,235,6.0,14.0,79,0.00,,,-99.99,,2013-03-12 03:22:00,
2013-03-11 23:32:00,41.0,35.0,-100.00,West,265,7.0,14.0,79,0.00,,,-99.99,,2013-03-12 03:32:00,
2013-03-11 23:42:00,41.0,35.0,-100.00,WSW,250,7.0,13.0,80,0.00,,,-99.99,,2013-03-12 03:42:00,
2013-03-11 23:52:00,41.0,35.0,-100.00,WSW,245,7.0,14.0,81,0.00,,,-99.99,,2013-03-12 03:52:00,